Retour au catalogue

SL-24 DEB

ActifSSO
NORAD 31120·DEBRIS·🇷🇺 Russia

Lancé Apr 17, 2007 depuis Baikonur Cosmodrome

Loading…

Prochains Passages (prochaines 24 heures)

TLE

FraisSource: Space-Track

Époque: Sep 14, 2026, 14:29 UTC

1 31120U 07012D   26257.60390582  .00001084  00000-0  13219-3 0  9994
2 31120  97.8119 217.7946 0006290 152.4303 207.7247 14.85339672 45753

Suivez SL-24 DEB en temps réel avec AllMySat

Download on the App Store